When you browse on this site, cookies collect data to enhance your experience and personalize the content and advertising you see.
Visit our Privacy Policy to learn more. By continuing to use the site, you agree to this use of cookies and data.
  • en Suisse
  • Liste des pays
  • À 7 jours
  • Température de l'eau
  • Carte météo
  • Widgets météo
  • user-avatar
    Se connecter

    Météo par heure à Vatican

    Ce jour, 17 Septembre, Mardi

    Heure Température Précipitation Vent Pression Humidité
    00:00 +24°C° 0 mm 1 m/s 762 mmHg 62%
    01:00 +24°C° 0 mm 1 m/s 762 mmHg 62%
    02:00 +23°C° 0 mm 1 m/s 761 mmHg 62%
    03:00 +23°C° 0 mm 1 m/s 761 mmHg 62%
    04:00 +23°C° 0 mm 1 m/s 761 mmHg 62%
    05:00 +23°C° 0 mm 1 m/s 761 mmHg 60%
    06:00 +23°C° 0 mm 1 m/s 761 mmHg 59%
    07:00 +21°C° 0 mm 0 m/s 761 mmHg 58%
    08:00 +25°C° 0 mm 1 m/s 761 mmHg 52%
    09:00 +26°C° 0 mm 1 m/s 761 mmHg 47%
    10:00 +28°C° 0 mm 1 m/s 761 mmHg 42%
    11:00 +28°C° 0 mm 1 m/s 761 mmHg 43%
    12:00 +29°C° 0 mm 2 m/s 761 mmHg 43%
    13:00 +29°C° 0 mm 3 m/s 760 mmHg 43%
    14:00 +29°C° 0 mm 3 m/s 760 mmHg 46%
    15:00 +28°C° 0 mm 3 m/s 760 mmHg 49%
    16:00 +28°C° 0 mm 4 m/s 759 mmHg 53%
    17:00 +27°C° 0 mm 3 m/s 759 mmHg 58%
    18:00 +26°C° 0 mm 2 m/s 759 mmHg 64%
    19:00 +25°C° 0 mm 1 m/s 760 mmHg 69%
    20:00 +25°C° 0 mm 1 m/s 760 mmHg 70%
    21:00 +24°C° 0 mm 1 m/s 760 mmHg 71%
    22:00 +24°C° 0 mm 1 m/s 760 mmHg 71%
    23:00 +24°C° 0 mm 1 m/s 760 mmHg 73%

    Demain, 18 Septembre, Mercredi

    Heure Température Précipitation Vent Pression Humidité
    00:00 +24°C° 0 mm 1 m/s 760 mmHg 74%
    01:00 +24°C° 0 mm 1 m/s 760 mmHg 75%
    02:00 +23°C° 0 mm 1 m/s 760 mmHg 75%
    03:00 +23°C° 0 mm 2 m/s 759 mmHg 76%
    04:00 +23°C° 0 mm 2 m/s 759 mmHg 76%
    05:00 +23°C° 0 mm 2 m/s 759 mmHg 75%
    06:00 +23°C° 0 mm 2 m/s 760 mmHg 73%
    07:00 +24°C° 0 mm 2 m/s 760 mmHg 72%
    08:00 +25°C° 0 mm 2 m/s 760 mmHg 68%
    09:00 +26°C° 0 mm 2 m/s 760 mmHg 63%
    10:00 +28°C° 0 mm 3 m/s 760 mmHg 59%
    11:00 +28°C° 0 mm 3 m/s 760 mmHg 59%
    12:00 +28°C° 0 mm 3 m/s 759 mmHg 60%
    13:00 +29°C° 0 mm 3 m/s 759 mmHg 60%
    14:00 +28°C° 0 mm 3 m/s 759 mmHg 63%
    15:00 +28°C° 0 mm 3 m/s 759 mmHg 65%
    16:00 +28°C° 0 mm 3 m/s 758 mmHg 67%
    17:00 +27°C° 0 mm 2 m/s 759 mmHg 72%
    18:00 +26°C° 0 mm 2 m/s 759 mmHg 76%
    19:00 +25°C° 0 mm 2 m/s 759 mmHg 80%
    20:00 +25°C° 0 mm 2 m/s 759 mmHg 81%
    21:00 +25°C° 0 mm 2 m/s 759 mmHg 82%
    22:00 +25°C° 0 mm 2 m/s 760 mmHg 84%
    23:00 +25°C° 0 mm 2 m/s 760 mmHg 84%

    Après-demain, 19 Septembre, Jeudi

    Heure Température Précipitation Vent Pression Humidité
    00:00 +24°C° 0 mm 2 m/s 760 mmHg 84%
    01:00 +24°C° 0 mm 3 m/s 759 mmHg 84%
    02:00 +24°C° 0.2 mm 3 m/s 759 mmHg 85%
    03:00 +24°C° 0.2 mm 3 m/s 759 mmHg 85%
    04:00 +24°C° 0.2 mm 3 m/s 759 mmHg 86%
    05:00 +24°C° 1.5 mm 3 m/s 759 mmHg 85%
    06:00 +24°C° 1.5 mm 3 m/s 759 mmHg 84%
    07:00 +23°C° 1.5 mm 4 m/s 759 mmHg 84%
    08:00 +23°C° 2.3 mm 4 m/s 759 mmHg 80%
    09:00 +25°C° 2.3 mm 4 m/s 759 mmHg 76%
    10:00 +26°C° 2.3 mm 4 m/s 760 mmHg 72%
    11:00 +26°C° 0.3 mm 4 m/s 760 mmHg 70%
    12:00 +27°C° 0.3 mm 4 m/s 759 mmHg 68%
    13:00 +27°C° 0.3 mm 4 m/s 759 mmHg 65%
    14:00 +28°C° 0.6 mm 3 m/s 759 mmHg 64%
    15:00 +28°C° 0.6 mm 3 m/s 759 mmHg 62%
    16:00 +28°C° 0.6 mm 2 m/s 759 mmHg 61%
    17:00 +27°C° 0.8 mm 2 m/s 760 mmHg 64%
    18:00 +26°C° 0.8 mm 1 m/s 760 mmHg 67%
    19:00 +26°C° 0.8 mm 1 m/s 760 mmHg 70%
    20:00 +25°C° 0.1 mm 1 m/s 761 mmHg 71%
    21:00 +25°C° 0.1 mm 2 m/s 761 mmHg 71%
    22:00 +24°C° 0.1 mm 3 m/s 761 mmHg 71%
    23:00 +24°C° 0.7 mm 3 m/s 762 mmHg 72%

    20 Septembre, Vendredi

    Heure Température Précipitation Vent Pression Humidité
    00:00 +22°C° 0.7 mm 3 m/s 762 mmHg 73%
    01:00 +22°C° 0.7 mm 3 m/s 762 mmHg 74%
    02:00 +21°C° 0.5 mm 3 m/s 762 mmHg 74%
    03:00 +21°C° 0.5 mm 3 m/s 762 mmHg 74%
    04:00 +21°C° 0.5 mm 3 m/s 762 mmHg 74%
    05:00 +21°C° 0.1 mm 3 m/s 762 mmHg 73%
    06:00 +21°C° 0.1 mm 3 m/s 762 mmHg 71%
    07:00 +21°C° 0.1 mm 3 m/s 762 mmHg 70%
    08:00 +23°C° 0 mm 2 m/s 762 mmHg 65%
    09:00 +25°C° 0 mm 2 m/s 762 mmHg 59%
    10:00 +27°C° 0 mm 2 m/s 763 mmHg 54%
    11:00 +27°C° 0 mm 2 m/s 763 mmHg 54%
    12:00 +28°C° 0 mm 2 m/s 763 mmHg 54%
    13:00 +28°C° 0 mm 2 m/s 763 mmHg 54%
    14:00 +28°C° 0 mm 2 m/s 762 mmHg 56%
    15:00 +27°C° 0 mm 2 m/s 762 mmHg 58%
    16:00 +27°C° 0 mm 3 m/s 762 mmHg 60%
    17:00 +26°C° 0 mm 3 m/s 762 mmHg 65%
    18:00 +26°C° 0 mm 3 m/s 763 mmHg 69%
    19:00 +25°C° 0 mm 2 m/s 763 mmHg 73%
    20:00 +25°C° 0 mm 3 m/s 763 mmHg 73%
    21:00 +24°C° 0 mm 3 m/s 764 mmHg 72%
    22:00 +24°C° 0 mm 3 m/s 764 mmHg 72%
    23:00 +24°C° 0 mm 3 m/s 764 mmHg 68%

    21 Septembre, Samedi

    Heure Température Précipitation Vent Pression Humidité
    00:00 +22°C° 0 mm 3 m/s 764 mmHg 65%
    01:00 +22°C° 0 mm 3 m/s 764 mmHg 61%
    02:00 +22°C° 0 mm 3 m/s 764 mmHg 63%
    03:00 +21°C° 0 mm 3 m/s 764 mmHg 64%
    04:00 +21°C° 0 mm 3 m/s 764 mmHg 65%
    05:00 +21°C° 0 mm 3 m/s 764 mmHg 65%
    06:00 +21°C° 0 mm 3 m/s 764 mmHg 64%
    07:00 +21°C° 0 mm 3 m/s 764 mmHg 63%
    08:00 +23°C° 0 mm 2 m/s 764 mmHg 60%
    09:00 +25°C° 0 mm 2 m/s 765 mmHg 56%
    10:00 +26°C° 0 mm 2 m/s 765 mmHg 53%
    11:00 +27°C° 0 mm 3 m/s 765 mmHg 54%
    12:00 +27°C° 0 mm 3 m/s 765 mmHg 55%
    13:00 +27°C° 0 mm 4 m/s 765 mmHg 56%
    14:00 +27°C° 0 mm 3 m/s 765 mmHg 56%
    15:00 +27°C° 0 mm 2 m/s 765 mmHg 55%
    16:00 +27°C° 0 mm 2 m/s 764 mmHg 54%
    17:00 +26°C° 0 mm 1 m/s 765 mmHg 56%
    18:00 +25°C° 0 mm 1 m/s 765 mmHg 58%
    19:00 +24°C° 0 mm 1 m/s 765 mmHg 59%
    20:00 +24°C° 0 mm 1 m/s 765 mmHg 60%
    21:00 +24°C° 0 mm 1 m/s 765 mmHg 61%
    22:00 +24°C° 0 mm 1 m/s 766 mmHg 62%
    23:00 +24°C° 0 mm 1 m/s 765 mmHg 63%

    22 Septembre, Dimanche

    Heure Température Précipitation Vent Pression Humidité
    00:00 +23°C° 0 mm 2 m/s 765 mmHg 64%
    01:00 +23°C° 0 mm 2 m/s 765 mmHg 64%
    02:00 +23°C° 0 mm 2 m/s 765 mmHg 65%
    03:00 +22°C° 0 mm 3 m/s 765 mmHg 65%
    04:00 +22°C° 0 mm 3 m/s 765 mmHg 65%
    05:00 +22°C° 0 mm 3 m/s 765 mmHg 65%
    06:00 +22°C° 0 mm 4 m/s 765 mmHg 65%
    07:00 +22°C° 0 mm 4 m/s 765 mmHg 65%
    08:00 +23°C° 0 mm 4 m/s 765 mmHg 62%
    09:00 +25°C° 0 mm 4 m/s 766 mmHg 60%
    10:00 +26°C° 0 mm 4 m/s 766 mmHg 58%
    11:00 +27°C° 0 mm 4 m/s 766 mmHg 59%
    12:00 +27°C° 0 mm 5 m/s 765 mmHg 59%
    13:00 +28°C° 0 mm 5 m/s 765 mmHg 60%
    14:00 +27°C° 0 mm 5 m/s 765 mmHg 63%
    15:00 +27°C° 0 mm 5 m/s 764 mmHg 66%
    16:00 +27°C° 0 mm 4 m/s 764 mmHg 68%
    17:00 +26°C° 0 mm 4 m/s 764 mmHg 72%
    18:00 +26°C° 0 mm 4 m/s 765 mmHg 75%
    19:00 +25°C° 0 mm 3 m/s 765 mmHg 79%
    20:00 +25°C° 0 mm 3 m/s 765 mmHg 80%
    21:00 +25°C° 0 mm 3 m/s 765 mmHg 81%
    22:00 +25°C° 0 mm 3 m/s 765 mmHg 83%
    23:00 +25°C° 0.1 mm 3 m/s 765 mmHg 83%
    Voir plus